#timestamp,LO_Frequency,Hit 
1500703215.7,286047019.5,N
1500703235.6,286047030.0,N
1500703255.4,286047028.6,N
1500703275.2,286047025.3,N
1500703295.1,286047022.4,N
1500703296.0,286047022.4,N
1500703315.8,286047019.1,N
1500703335.6,286047022.3,N
1500703355.5,286047028.2,N
1500703375.3,286047029.9,N
1500703395.1,286047031.6,N
1500703415.9,286047038.6,N
1500703435.7,286047050.6,N
1500703455.5,286047058.2,N
1500703475.4,286047064.0,N
1500703495.2,286047064.5,N
1500703515.0,286047064.4,N
1500703515.9,286047064.4,N
1500703535.8,286047058.8,N
1500703555.6,286047054.4,N
1500703575.4,286047048.8,N
1500703595.3,286047041.3,N
1500703615.1,286047052.5,N
1500703616.0,286047052.5,N
1500703635.8,286047063.2,N
1500703655.7,286047066.6,N
1500703675.5,286047066.0,N
1500703695.3,286047065.4,N
1500703715.2,286047073.5,N
1500703735.9,286047076.5,N
1500703755.7,286047077.8,N
1500703775.6,286047073.4,N
1500703795.4,286047074.9,N
1500703815.2,286047080.9,N
1500703835.0,286047079.4,N
1500703836.0,286047079.4,N
1500703855.8,286047074.4,N
1500703875.6,286047064.1,N
1500703895.5,286047059.0,N
1500703915.3,286047058.2,N
1500703935.1,286047051.7,N
1500703955.9,286047046.8,N
1500703975.7,286047044.1,N
1500703995.5,286047043.9,N
1500704015.3,286047043.4,N
1500704035.2,286047047.1,N
1500704055.0,286047052.9,N
1500704055.9,286047052.9,N
1500704075.7,286047057.2,N
1500704095.6,286047053.8,N
1500704115.4,286047049.5,N
1500704135.2,286047053.7,N
1500704155.1,286047053.6,N
1500704156.0,286047053.6,N
1500704175.8,286047053.7,N
1500704195.6,286047056.6,N
1500704215.5,286047056.2,N
1500704235.3,286047057.1,N
1500704255.1,286047054.7,N
1500704275.9,286047057.1,N
1500704295.7,286047059.1,N
1500704315.5,286047060.2,N
1500704335.4,286047061.8,N
1500704355.2,286047059.7,N
1500704375.0,286047059.1,N
1500704375.9,286047059.1,N
1500704395.8,286047063.6,N
1500704415.6,286047060.9,N
1500704435.4,286047063.6,N
1500704455.3,286047064.7,N
1500704475.1,286047071.3,N
1500704476.0,286047071.3,N
1500704495.8,286047078.6,N
1500704515.7,286047077.4,N
1500704535.5,286047075.5,N
1500704555.3,286047072.2,N
1500704575.2,286047072.3,N
1500704595.9,286047074.8,N
1500704615.7,286047066.9,N
1500704635.6,286047066.5,N
1500704655.4,286047063.4,N
1500704675.2,286047054.3,N
1500704695.1,286047048.2,N
1500704696.0,286047048.2,N
1500704715.8,286047043.5,N
1500704735.6,286047038.7,N
1500704755.4,286047034.9,N
1500704775.3,286047034.4,N
1500704795.1,286047036.4,N
1500704815.8,286047040.0,N
1500704835.7,286047047.1,N
1500704855.5,286047049.8,N
1500704875.3,286047053.3,N
1500704895.2,286047058.3,N
1500704915.9,286047054.0,N
1500704935.7,286047048.7,N
1500704955.6,286047043.7,N
1500704975.4,286047040.1,N
1500704995.2,286047043.8,N
1500705015.1,286047048.9,N
1500705016.0,286047048.9,N
1500705035.8,286047051.7,N
1500705055.6,286047053.8,N
1500705075.5,286047049.8,N
1500705095.3,286047043.1,N
1500705115.1,286047042.8,N
1500705135.9,286047037.7,N
1500705155.7,286047032.1,N
1500705175.5,286047028.5,N
1500705195.4,286047026.3,N
1500705215.2,286047023.9,N
1500705235.0,286047028.0,N
1500705235.9,286047028.0,N
1500705255.8,286047028.2,N
1500705275.6,286047027.1,N
1500705295.4,286047028.2,N
1500705315.3,286047025.7,N
1500705335.1,286047030.0,N
1500705336.0,286047030.0,N
1500705355.8,286047033.7,N
1500705375.7,286047037.2,N
1500705395.5,286047037.4,N
1500705415.3,286047034.8,N
1500705435.1,286047031.6,N
1500705455.9,286047026.3,N
1500705475.7,286047026.8,N
1500705495.5,286047022.5,N
1500705515.4,286047022.1,N
1500705535.2,286047026.2,N
1500705555.0,286047024.6,N
1500705555.9,286047024.6,N
1500705575.8,286047025.3,N
1500705595.6,286047026.3,N
1500705615.4,286047026.6,N
1500705635.3,286047028.0,N
1500705655.1,286047030.6,N
1500705675.8,286047031.7,N
1500705695.7,286047034.7,N
1500705715.5,286047032.2,N
1500705735.3,286047030.2,N
1500705755.2,286047033.5,N
1500705775.9,286047039.5,N
1500705795.7,286047048.8,N
1500705815.6,286047060.9,N
1500705835.4,286047070.4,N
1500705855.2,286047078.1,N
1500705875.1,286047079.6,N
1500705876.0,286047079.6,N
1500705895.8,286047072.3,N
1500705915.6,286047070.9,N
1500705935.5,286047068.6,N
1500705955.3,286047068.5,N
1500705975.1,286047066.0,N
1500705995.8,286047065.3,N
1500706015.7,286047065.8,N
1500706035.5,286047062.0,N
1500706055.3,286047053.0,N
1500706075.2,286047046.7,N
1500706095.0,286047040.4,N
1500706095.9,286047040.4,N
1500706115.7,286047033.3,N
1500706135.6,286047032.7,N
1500706155.4,286047032.7,N
1500706175.2,286047031.1,N
1500706195.1,286047029.8,N
1500706196.0,286047029.8,N
1500706215.8,286047027.4,N
1500706235.6,286047028.4,N
1500706255.5,286047031.6,N
1500706275.3,286047031.5,N
1500706295.1,286047028.5,N
1500706315.9,286047031.6,N
1500706335.7,286047029.3,N
1500706355.5,286047027.1,N
1500706375.4,286047024.3,N
1500706395.2,286047022.5,N
1500706415.0,286047024.9,N
1500706415.9,286047024.9,N
1500706435.8,286047026.8,N
1500706455.6,286047025.6,N
1500706475.4,286047025.8,N
1500706495.3,286047027.1,N
1500706515.1,286047031.1,N
1500706516.0,286047031.1,N
1500706535.8,286047027.7,N
1500706555.7,286047024.4,N
1500706575.5,286047025.2,N
1500706595.3,286047024.0,N
1500706615.2,286047025.2,N
1500706635.9,286047026.3,N
1500706655.7,286047026.8,N
1500706675.6,286047023.1,N
1500706695.4,286047021.8,N
1500706715.2,286047018.1,N
1500706735.0,286047019.8,N
1500706736.0,286047019.8,N
1500706755.8,286047017.6,N
1500706775.6,286047018.5,N
1500706795.4,286047016.0,N
